Time,TemperatureF,DewpointF,PressureIn,WindDirection,WindDirectionDegrees,WindSpeedMPH,WindSpeedGustMPH,Humidity,HourlyPrecipIn,Conditions,Clouds,dailyrainin,SoftwareType,DateUTC
2013-01-16 00:02:00,46.2,34.3,30.42,South,180,1.0,6.0,63,0.00,,,0.00,meteohub,2013-01-16 08:02:00,
2013-01-16 00:07:00,45.9,32.4,30.42,South,180,0.0,6.0,59,0.00,,,0.00,meteohub,2013-01-16 08:07:00,
2013-01-16 00:12:00,44.8,31.8,30.42,South,169,1.0,6.0,60,0.00,,,0.00,meteohub,2013-01-16 08:12:00,
2013-01-16 00:17:00,43.9,31.6,30.42,SE,136,0.0,1.0,62,0.00,,,0.00,meteohub,2013-01-16 08:17:00,
2013-01-16 00:22:00,43.2,31.8,30.42,SE,136,0.0,1.0,64,0.00,,,0.00,meteohub,2013-01-16 08:22:00,
2013-01-16 00:27:00,42.4,31.5,30.42,SE,136,0.0,1.0,65,0.00,,,0.00,meteohub,2013-01-16 08:27:00,
2013-01-16 00:32:00,42.1,31.5,30.42,SE,136,0.0,0.0,66,0.00,,,0.00,meteohub,2013-01-16 08:32:00,
2013-01-16 00:37:00,41.5,31.5,30.42,SE,136,0.0,0.0,67,0.00,,,0.00,meteohub,2013-01-16 08:37:00,
2013-01-16 00:42:00,41.2,31.5,30.42,SE,136,0.0,0.0,68,0.00,,,0.00,meteohub,2013-01-16 08:42:00,
2013-01-16 00:48:00,40.8,31.5,30.41,SE,136,0.0,0.0,69,0.00,,,0.00,meteohub,2013-01-16 08:48:00,
2013-01-16 00:53:00,40.5,31.1,30.42,SE,136,0.0,0.0,69,0.00,,,0.00,meteohub,2013-01-16 08:53:00,
2013-01-16 00:58:00,40.3,31.3,30.41,SE,136,0.0,0.0,70,0.00,,,0.00,meteohub,2013-01-16 08:58:00,
2013-01-16 01:03:00,40.1,31.5,30.41,SE,136,0.0,0.0,71,0.00,,,0.00,meteohub,2013-01-16 09:03:00,
2013-01-16 01:08:00,39.9,30.9,30.41,SE,136,0.0,0.0,70,0.00,,,0.00,meteohub,2013-01-16 09:08:00,
2013-01-16 01:13:00,39.9,31.3,30.41,SE,136,0.0,0.0,71,0.00,,,0.00,meteohub,2013-01-16 09:13:00,
2013-01-16 01:18:00,40.1,31.5,30.41,SE,136,0.0,1.0,71,0.00,,,0.00,meteohub,2013-01-16 09:18:00,
2013-01-16 01:23:00,40.3,31.6,30.41,SE,136,0.0,1.0,71,0.00,,,0.00,meteohub,2013-01-16 09:23:00,
2013-01-16 01:28:00,40.3,31.6,30.41,SE,136,0.0,1.0,71,0.00,,,0.00,meteohub,2013-01-16 09:28:00,
2013-01-16 01:33:00,40.3,31.6,30.41,SE,136,0.0,0.0,71,0.00,,,0.00,meteohub,2013-01-16 09:33:00,
2013-01-16 01:38:00,39.9,31.6,30.41,SE,136,0.0,0.0,72,0.00,,,0.00,meteohub,2013-01-16 09:38:00,
2013-01-16 01:43:00,39.7,31.5,30.41,SE,135,0.0,0.0,72,0.00,,,0.00,meteohub,2013-01-16 09:43:00,
2013-01-16 01:49:00,39.6,31.3,30.41,SE,136,0.0,0.0,72,0.00,,,0.00,meteohub,2013-01-16 09:49:00,
2013-01-16 01:54:00,39.2,31.3,30.42,SE,136,0.0,0.0,73,0.00,,,0.00,meteohub,2013-01-16 09:54:00,
2013-01-16 01:59:00,38.8,31.3,30.41,SE,136,0.0,0.0,74,0.00,,,0.00,meteohub,2013-01-16 09:59:00,
2013-01-16 02:04:00,38.7,31.1,30.41,SE,136,0.0,0.0,74,0.00,,,0.00,meteohub,2013-01-16 10:04:00,
2013-01-16 02:09:00,38.5,31.3,30.41,SE,136,0.0,0.0,75,0.00,,,0.00,meteohub,2013-01-16 10:09:00,
2013-01-16 02:14:00,38.5,31.3,30.41,SE,136,0.0,0.0,75,0.00,,,0.00,meteohub,2013-01-16 10:14:00,
2013-01-16 02:19:00,38.7,31.5,30.41,SE,136,0.0,0.0,75,0.00,,,0.00,meteohub,2013-01-16 10:19:00,
2013-01-16 02:24:00,38.7,31.1,30.41,SE,136,0.0,0.0,74,0.00,,,0.00,meteohub,2013-01-16 10:24:00,
2013-01-16 02:29:00,38.8,31.3,30.41,SE,136,0.0,0.0,74,0.00,,,0.00,meteohub,2013-01-16 10:29:00,
2013-01-16 02:34:00,38.7,31.1,30.41,SE,136,0.0,0.0,74,0.00,,,0.00,meteohub,2013-01-16 10:34:00,
2013-01-16 02:40:00,38.5,30.9,30.41,SE,136,0.0,0.0,74,0.00,,,0.00,meteohub,2013-01-16 10:40:00,
2013-01-16 02:45:00,38.1,31.3,30.41,SE,135,0.0,1.0,76,0.00,,,0.00,meteohub,2013-01-16 10:45:00,
2013-01-16 02:50:00,38.3,31.5,30.41,SE,135,0.0,1.0,76,0.00,,,0.00,meteohub,2013-01-16 10:50:00,
2013-01-16 02:55:00,38.3,31.5,30.42,SE,136,0.0,1.0,76,0.00,,,0.00,meteohub,2013-01-16 10:55:00,
2013-01-16 03:00:00,38.5,31.3,30.41,SE,135,0.0,1.0,75,0.00,,,0.00,meteohub,2013-01-16 11:00:00,
2013-01-16 03:05:00,38.1,30.9,30.41,East,79,0.0,2.0,75,0.00,,,0.00,meteohub,2013-01-16 11:05:00,
2013-01-16 03:10:00,37.9,30.7,30.41,East,79,0.0,2.0,75,0.00,,,0.00,meteohub,2013-01-16 11:10:00,
2013-01-16 03:15:00,37.6,30.4,30.41,East,79,0.0,2.0,75,0.00,,,0.00,meteohub,2013-01-16 11:15:00,
2013-01-16 03:20:00,37.4,30.6,30.41,East,80,0.0,1.0,76,0.00,,,0.00,meteohub,2013-01-16 11:20:00,
2013-01-16 03:25:00,37.2,30.7,30.42,East,80,0.0,1.0,77,0.00,,,0.00,meteohub,2013-01-16 11:25:00,
2013-01-16 03:30:00,37.0,30.6,30.41,East,80,0.0,0.0,77,0.00,,,0.00,meteohub,2013-01-16 11:30:00,
2013-01-16 03:36:00,36.9,30.4,30.41,East,80,0.0,0.0,77,0.00,,,0.00,meteohub,2013-01-16 11:36:00,
2013-01-16 03:41:00,36.7,30.6,30.40,East,80,0.0,0.0,78,0.00,,,0.00,meteohub,2013-01-16 11:41:00,
2013-01-16 03:46:00,36.7,30.6,30.40,ENE,61,0.0,2.0,78,0.00,,,0.00,meteohub,2013-01-16 11:46:00,
2013-01-16 03:51:00,36.9,30.9,30.40,NNE,24,0.0,2.0,79,0.00,,,0.00,meteohub,2013-01-16 11:51:00,
2013-01-16 03:56:00,37.2,30.7,30.40,NNE,24,0.0,5.0,77,0.00,,,0.00,meteohub,2013-01-16 11:56:00,
2013-01-16 04:01:00,37.2,30.4,30.40,NNE,24,0.0,5.0,76,0.00,,,0.00,meteohub,2013-01-16 12:01:00,
2013-01-16 04:06:00,37.2,30.4,30.40,NNE,24,3.0,3.0,76,0.00,,,0.00,meteohub,2013-01-16 12:06:00,
2013-01-16 04:11:00,37.2,30.0,30.40,NNE,24,0.0,3.0,75,0.00,,,0.00,meteohub,2013-01-16 12:11:00,
2013-01-16 04:16:00,37.2,30.0,30.40,NNE,24,0.0,3.0,75,0.00,,,0.00,meteohub,2013-01-16 12:16:00,
2013-01-16 04:21:00,37.2,29.7,30.40,NNE,24,0.0,3.0,74,0.00,,,0.00,meteohub,2013-01-16 12:21:00,
2013-01-16 04:26:00,37.2,29.7,30.40,NNE,24,0.0,0.0,74,0.00,,,0.00,meteohub,2013-01-16 12:26:00,
2013-01-16 04:32:00,37.2,29.7,30.40,NNE,24,0.0,0.0,74,0.00,,,0.00,meteohub,2013-01-16 12:32:00,
2013-01-16 04:37:00,37.2,29.7,30.40,NNE,24,0.0,0.0,74,0.00,,,0.00,meteohub,2013-01-16 12:37:00,
2013-01-16 04:42:00,37.2,29.7,30.40,NNE,24,0.0,0.0,74,0.00,,,0.00,meteohub,2013-01-16 12:42:00,
2013-01-16 04:47:00,37.4,29.5,30.39,ENE,70,0.0,1.0,73,0.00,,,0.00,meteohub,2013-01-16 12:47:00,
2013-01-16 04:52:00,37.9,29.7,30.40,ENE,70,0.0,1.0,72,0.00,,,0.00,meteohub,2013-01-16 12:52:00,
2013-01-16 04:57:00,38.1,29.5,30.39,ENE,70,0.0,1.0,71,0.00,,,0.00,meteohub,2013-01-16 12:57:00,
2013-01-16 05:02:00,38.1,29.5,30.39,ENE,70,0.0,0.0,71,0.00,,,0.00,meteohub,2013-01-16 13:02:00,
2013-01-16 05:07:00,37.8,29.5,30.39,ENE,70,0.0,1.0,72,0.00,,,0.00,meteohub,2013-01-16 13:07:00,
2013-01-16 05:12:00,37.4,29.8,30.39,ENE,70,0.0,1.0,74,0.00,,,0.00,meteohub,2013-01-16 13:12:00,
2013-01-16 05:17:00,37.0,29.8,30.39,ENE,70,0.0,0.0,75,0.00,,,0.00,meteohub,2013-01-16 13:17:00,
2013-01-16 05:22:00,36.9,29.7,30.39,ENE,70,0.0,0.0,75,0.00,,,0.00,meteohub,2013-01-16 13:22:00,
2013-01-16 05:27:00,36.7,29.8,30.39,ENE,70,0.0,1.0,76,0.00,,,0.00,meteohub,2013-01-16 13:27:00,
2013-01-16 05:32:00,36.5,29.7,30.39,ENE,70,0.0,1.0,76,0.00,,,0.00,meteohub,2013-01-16 13:32:00,
2013-01-16 05:37:00,36.3,29.8,30.39,ENE,70,0.0,0.0,77,0.00,,,0.00,meteohub,2013-01-16 13:37:00,
2013-01-16 05:42:00,36.3,29.8,30.39,ENE,70,0.0,0.0,77,0.00,,,0.00,meteohub,2013-01-16 13:42:00,
2013-01-16 05:47:00,36.5,30.4,30.40,ENE,70,0.0,0.0,78,0.00,,,0.00,meteohub,2013-01-16 13:47:00,
2013-01-16 05:52:00,36.5,30.4,30.39,ENE,70,0.0,0.0,78,0.00,,,0.00,meteohub,2013-01-16 13:52:00,
2013-01-16 05:57:00,36.7,30.6,30.39,ENE,70,0.0,0.0,78,0.00,,,0.00,meteohub,2013-01-16 13:57:00,
2013-01-16 06:02:00,36.7,30.2,30.39,ENE,70,0.0,0.0,77,0.00,,,0.00,meteohub,2013-01-16 14:02:00,
2013-01-16 06:07:00,36.7,30.2,30.39,ENE,70,0.0,0.0,77,0.00,,,0.00,meteohub,2013-01-16 14:07:00,
2013-01-16 06:12:00,36.5,30.0,30.39,ENE,70,0.0,1.0,77,0.00,,,0.00,meteohub,2013-01-16 14:12:00,
2013-01-16 06:17:00,36.3,29.8,30.39,ENE,70,0.0,1.0,77,0.00,,,0.00,meteohub,2013-01-16 14:17:00,
2013-01-16 06:22:00,36.1,29.7,30.39,NNE,24,0.0,1.0,77,0.00,,,0.00,meteohub,2013-01-16 14:22:00,
2013-01-16 06:27:00,36.1,30.2,30.39,NNE,27,0.0,4.0,79,0.00,,,0.00,meteohub,2013-01-16 14:27:00,
2013-01-16 06:32:00,36.3,30.2,30.39,NNE,15,0.0,4.0,78,0.00,,,0.00,meteohub,2013-01-16 14:32:00,
2013-01-16 06:37:00,36.7,30.2,30.40,North,355,0.0,4.0,77,0.00,,,0.00,meteohub,2013-01-16 14:37:00,
2013-01-16 06:42:00,36.7,30.2,30.40,North,355,0.0,3.0,77,0.00,,,0.00,meteohub,2013-01-16 14:42:00,
2013-01-16 06:47:00,36.7,29.8,30.40,North,355,0.0,2.0,76,0.00,,,0.00,meteohub,2013-01-16 14:47:00,
2013-01-16 06:52:00,36.7,30.2,30.40,North,355,0.0,2.0,77,0.00,,,0.00,meteohub,2013-01-16 14:52:00,
2013-01-16 06:57:00,36.3,29.8,30.40,North,355,0.0,1.0,77,0.00,,,0.00,meteohub,2013-01-16 14:57:00,
2013-01-16 07:02:00,36.3,30.2,30.40,North,355,0.0,1.0,78,0.00,,,0.00,meteohub,2013-01-16 15:02:00,
2013-01-16 07:07:00,36.1,29.7,30.40,North,355,0.0,0.0,77,0.00,,,0.00,meteohub,2013-01-16 15:07:00,
2013-01-16 07:12:00,36.3,30.2,30.40,North,355,0.0,1.0,78,0.00,,,0.00,meteohub,2013-01-16 15:12:00,
2013-01-16 07:17:00,36.3,29.8,30.40,North,355,0.0,1.0,77,0.00,,,0.00,meteohub,2013-01-16 15:17:00,
2013-01-16 07:22:00,36.3,29.8,30.40,North,355,0.0,1.0,77,0.00,,,0.00,meteohub,2013-01-16 15:22:00,
2013-01-16 07:27:00,36.3,29.8,30.40,North,355,0.0,2.0,77,0.00,,,0.00,meteohub,2013-01-16 15:27:00,
2013-01-16 07:32:00,36.3,29.8,30.40,North,355,0.0,2.0,77,0.00,,,0.00,meteohub,2013-01-16 15:32:00,
2013-01-16 07:38:00,36.5,30.4,30.40,NE,40,0.0,2.0,78,0.00,,,0.00,meteohub,2013-01-16 15:38:00,
2013-01-16 07:43:00,36.9,30.4,30.41,NE,40,0.0,1.0,77,0.00,,,0.00,meteohub,2013-01-16 15:43:00,
2013-01-16 07:48:00,37.0,30.2,30.41,NE,40,0.0,1.0,76,0.00,,,0.00,meteohub,2013-01-16 15:48:00,
2013-01-16 07:53:00,37.6,30.0,30.41,NE,40,0.0,1.0,74,0.00,,,0.00,meteohub,2013-01-16 15:53:00,
2013-01-16 07:58:00,37.9,30.4,30.42,NE,40,0.0,0.0,74,0.00,,,0.00,meteohub,2013-01-16 15:58:00,
2013-01-16 08:03:00,38.5,30.9,30.41,NE,40,0.0,1.0,74,0.00,,,0.00,meteohub,2013-01-16 16:03:00,
2013-01-16 08:08:00,38.8,31.3,30.41,NE,40,0.0,1.0,74,0.00,,,0.00,meteohub,2013-01-16 16:08:00,
2013-01-16 08:13:00,39.0,31.5,30.41,NE,40,0.0,1.0,74,0.00,,,0.00,meteohub,2013-01-16 16:13:00,
2013-01-16 08:18:00,39.4,31.1,30.40,NE,40,0.0,1.0,72,0.00,,,0.00,meteohub,2013-01-16 16:18:00,
2013-01-16 08:23:00,39.7,31.1,30.41,NE,40,0.0,0.0,71,0.00,,,0.00,meteohub,2013-01-16 16:23:00,
2013-01-16 08:28:00,40.3,30.9,30.42,NE,40,0.0,1.0,69,0.00,,,0.00,meteohub,2013-01-16 16:28:00,
2013-01-16 08:33:00,41.0,31.3,30.42,NE,40,0.0,1.0,68,0.00,,,0.00,meteohub,2013-01-16 16:33:00,
2013-01-16 08:38:00,41.4,31.3,30.41,NE,40,0.0,1.0,67,0.00,,,0.00,meteohub,2013-01-16 16:38:00,
2013-01-16 08:43:00,41.9,30.6,30.41,NE,40,0.0,0.0,64,0.00,,,0.00,meteohub,2013-01-16 16:43:00,
2013-01-16 08:48:00,42.6,32.0,30.41,NE,40,0.0,0.0,66,0.00,,,0.00,meteohub,2013-01-16 16:48:00,
2013-01-16 08:53:00,43.3,32.7,30.41,NE,40,0.0,0.0,66,0.00,,,0.00,meteohub,2013-01-16 16:53:00,
2013-01-16 08:59:00,44.2,33.3,30.41,NE,40,0.0,0.0,65,0.00,,,0.00,meteohub,2013-01-16 16:59:00,
2013-01-16 09:04:00,45.1,33.6,30.41,NE,40,0.0,0.0,64,0.00,,,0.00,meteohub,2013-01-16 17:04:00,
2013-01-16 09:09:00,46.0,34.2,30.41,ESE,121,0.0,1.0,63,0.00,,,0.00,meteohub,2013-01-16 17:09:00,
2013-01-16 09:14:00,47.1,35.2,30.40,SE,132,0.0,1.0,63,0.00,,,0.00,meteohub,2013-01-16 17:14:00,
2013-01-16 09:19:00,48.0,35.2,30.40,SSE,157,1.0,1.0,61,0.00,,,0.00,meteohub,2013-01-16 17:19:00,
2013-01-16 09:24:00,49.3,35.6,30.40,SSE,157,0.0,2.0,59,0.00,,,0.00,meteohub,2013-01-16 17:24:00,
2013-01-16 09:29:00,50.2,36.0,30.41,South,171,0.0,2.0,58,0.00,,,0.00,meteohub,2013-01-16 17:29:00,
2013-01-16 09:34:00,51.1,36.3,30.40,South,171,0.0,4.0,57,0.00,,,0.00,meteohub,2013-01-16 17:34:00,
2013-01-16 09:39:00,51.6,36.0,30.40,South,171,0.0,4.0,55,0.00,,,0.00,meteohub,2013-01-16 17:39:00,
2013-01-16 09:44:00,52.5,36.9,30.40,South,171,0.0,4.0,55,0.00,,,0.00,meteohub,2013-01-16 17:44:00,
2013-01-16 09:49:00,53.2,35.6,30.40,South,171,0.0,2.0,51,0.00,,,0.00,meteohub,2013-01-16 17:49:00,
2013-01-16 09:54:00,54.0,35.8,30.40,South,171,0.0,2.0,50,0.00,,,0.00,meteohub,2013-01-16 17:54:00,
2013-01-16 09:59:00,54.7,36.9,30.39,South,171,0.0,2.0,51,0.00,,,0.00,meteohub,2013-01-16 17:59:00,
2013-01-16 10:04:00,55.2,37.4,30.39,South,171,0.0,2.0,51,0.00,,,0.00,meteohub,2013-01-16 18:04:00,
2013-01-16 10:09:00,55.8,36.3,30.39,SSW,211,0.0,1.0,48,0.00,,,0.00,meteohub,2013-01-16 18:09:00,
2013-01-16 10:15:00,56.7,35.6,30.38,SSW,211,0.0,2.0,45,0.00,,,0.00,meteohub,2013-01-16 18:15:00,
2013-01-16 10:20:00,57.2,35.4,30.38,SSW,211,0.0,2.0,44,0.00,,,0.00,meteohub,2013-01-16 18:20:00,
2013-01-16 10:25:00,57.9,36.1,30.38,SSW,211,0.0,2.0,44,0.00,,,0.00,meteohub,2013-01-16 18:25:00,
2013-01-16 10:30:00,58.6,33.8,30.38,SSW,211,0.0,1.0,39,0.00,,,0.00,meteohub,2013-01-16 18:30:00,
2013-01-16 10:35:00,59.2,34.2,30.37,SSW,211,0.0,3.0,39,0.00,,,0.00,meteohub,2013-01-16 18:35:00,
2013-01-16 10:40:00,59.5,34.5,30.37,SSW,211,0.0,3.0,39,0.00,,,0.00,meteohub,2013-01-16 18:40:00,
2013-01-16 10:45:00,60.1,33.8,30.37,SSW,212,1.0,3.0,37,0.00,,,0.00,meteohub,2013-01-16 18:45:00,
2013-01-16 10:50:00,60.4,34.0,30.36,SSW,212,0.0,3.0,37,0.00,,,0.00,meteohub,2013-01-16 18:50:00,
2013-01-16 10:55:00,61.0,33.1,30.35,SSW,212,0.0,3.0,35,0.00,,,0.00,meteohub,2013-01-16 18:55:00,
2013-01-16 11:00:00,61.5,35.1,30.35,SSW,212,0.0,3.0,37,0.00,,,0.00,meteohub,2013-01-16 19:00:00,
2013-01-16 11:05:00,62.2,34.9,30.35,SSW,212,1.0,2.0,36,0.00,,,0.00,meteohub,2013-01-16 19:05:00,
2013-01-16 11:10:00,62.8,34.7,30.34,SSW,209,0.0,2.0,35,0.00,,,0.00,meteohub,2013-01-16 19:10:00,
2013-01-16 11:15:00,63.3,35.2,30.34,SSW,203,1.0,3.0,35,0.00,,,0.00,meteohub,2013-01-16 19:15:00,
2013-01-16 11:20:00,63.7,34.7,30.34,SW,217,1.0,3.0,34,0.00,,,0.00,meteohub,2013-01-16 19:20:00,
2013-01-16 11:25:00,63.9,34.2,30.33,SW,217,0.0,2.0,33,0.00,,,0.00,meteohub,2013-01-16 19:25:00,
2013-01-16 11:31:00,64.0,34.3,30.33,SW,217,0.0,2.0,33,0.00,,,0.00,meteohub,2013-01-16 19:31:00,
2013-01-16 11:36:00,64.0,34.3,30.32,North,350,0.0,2.0,33,0.00,,,0.00,meteohub,2013-01-16 19:36:00,
2013-01-16 11:41:00,64.2,35.2,30.32,North,5,4.0,4.0,34,0.00,,,0.00,meteohub,2013-01-16 19:41:00,
2013-01-16 11:46:00,64.2,35.2,30.32,North,5,0.0,4.0,34,0.00,,,0.00,meteohub,2013-01-16 19:46:00,
2013-01-16 11:51:00,64.6,35.6,30.31,North,0,3.0,4.0,34,0.00,,,0.00,meteohub,2013-01-16 19:51:00,
2013-01-16 11:56:00,64.8,36.5,30.31,North,0,0.0,4.0,35,0.00,,,0.00,meteohub,2013-01-16 19:56:00,
2013-01-16 12:01:00,64.9,36.7,30.30,North,0,0.0,4.0,35,0.00,,,0.00,meteohub,2013-01-16 20:01:00,
2013-01-16 12:06:00,65.1,35.2,30.30,NNW,340,0.0,4.0,33,0.00,,,0.00,meteohub,2013-01-16 20:06:00,
2013-01-16 12:11:00,65.5,35.6,30.30,NNW,346,5.0,5.0,33,0.00,,,0.00,meteohub,2013-01-16 20:11:00,
2013-01-16 12:16:00,65.5,34.9,30.29,NNW,341,1.0,6.0,32,0.00,,,0.00,meteohub,2013-01-16 20:16:00,
2013-01-16 12:21:00,65.7,37.2,30.29,SW,228,2.0,6.0,35,0.00,,,0.00,meteohub,2013-01-16 20:21:00,
2013-01-16 12:26:00,65.8,39.6,30.28,SW,227,0.0,6.0,38,0.00,,,0.00,meteohub,2013-01-16 20:26:00,
2013-01-16 12:31:00,66.0,39.0,30.28,South,190,0.0,6.0,37,0.00,,,0.00,meteohub,2013-01-16 20:31:00,
2013-01-16 12:36:00,66.6,38.8,30.28,SW,232,4.0,6.0,36,0.00,,,0.00,meteohub,2013-01-16 20:36:00,
2013-01-16 12:41:00,66.7,39.0,30.27,SSW,213,0.0,6.0,36,0.00,,,0.00,meteohub,2013-01-16 20:41:00,
2013-01-16 12:46:00,66.9,39.0,30.27,SSW,192,0.0,5.0,36,0.00,,,0.00,meteohub,2013-01-16 20:46:00,
2013-01-16 12:52:00,67.3,39.4,30.27,SSW,208,2.0,5.0,36,0.00,,,0.00,meteohub,2013-01-16 20:52:00,
2013-01-16 12:57:00,67.6,40.5,30.27,West,262,0.0,5.0,37,0.00,,,0.00,meteohub,2013-01-16 20:57:00,
2013-01-16 13:02:00,67.6,40.5,30.26,SW,217,0.0,5.0,37,0.00,,,0.00,meteohub,2013-01-16 21:02:00,
2013-01-16 13:07:00,67.6,39.0,30.26,WNW,303,0.0,5.0,35,0.00,,,0.00,meteohub,2013-01-16 21:07:00,
2013-01-16 13:12:00,67.5,40.3,30.26,WSW,244,0.0,5.0,37,0.00,,,0.00,meteohub,2013-01-16 21:12:00,
2013-01-16 13:17:00,67.6,39.7,30.26,SW,228,1.0,3.0,36,0.00,,,0.00,meteohub,2013-01-16 21:17:00,
2013-01-16 13:22:00,67.8,39.2,30.25,SW,229,0.0,4.0,35,0.00,,,0.00,meteohub,2013-01-16 21:22:00,
2013-01-16 13:27:00,68.0,40.1,30.25,SW,229,0.0,4.0,36,0.00,,,0.00,meteohub,2013-01-16 21:27:00,
2013-01-16 13:32:00,68.4,39.6,30.25,SW,229,1.0,3.0,35,0.00,,,0.00,meteohub,2013-01-16 21:32:00,
2013-01-16 13:37:00,68.5,40.5,30.25,SSW,211,0.0,3.0,36,0.00,,,0.00,meteohub,2013-01-16 21:37:00,
2013-01-16 13:42:00,68.7,39.9,30.25,SSW,212,0.0,2.0,35,0.00,,,0.00,meteohub,2013-01-16 21:42:00,
2013-01-16 13:47:00,69.1,40.3,30.24,SSW,210,0.0,2.0,35,0.00,,,0.00,meteohub,2013-01-16 21:47:00,
2013-01-16 13:52:00,69.3,39.7,30.24,SSW,199,0.0,3.0,34,0.00,,,0.00,meteohub,2013-01-16 21:52:00,
2013-01-16 13:57:00,69.3,39.7,30.24,NNW,331,1.0,3.0,34,0.00,,,0.00,meteohub,2013-01-16 21:57:00,
2013-01-16 14:02:00,68.5,39.0,30.24,NNW,344,1.0,5.0,34,0.00,,,0.00,meteohub,2013-01-16 22:02:00,
2013-01-16 14:07:00,68.0,39.4,30.24,North,5,0.0,7.0,35,0.00,,,0.00,meteohub,2013-01-16 22:07:00,
2013-01-16 14:12:00,67.8,39.2,30.24,North,5,0.0,7.0,35,0.00,,,0.00,meteohub,2013-01-16 22:12:00,
2013-01-16 14:17:00,67.8,40.6,30.24,North,5,0.0,7.0,37,0.00,,,0.00,meteohub,2013-01-16 22:17:00,
2013-01-16 14:22:00,68.2,39.6,30.23,North,5,0.0,2.0,35,0.00,,,0.00,meteohub,2013-01-16 22:22:00,
2013-01-16 14:27:00,68.2,38.7,30.23,NNW,330,0.0,2.0,34,0.00,,,0.00,meteohub,2013-01-16 22:27:00,
2013-01-16 14:32:00,68.2,39.6,30.23,North,9,3.0,6.0,35,0.00,,,0.00,meteohub,2013-01-16 22:32:00,
2013-01-16 14:37:00,67.8,40.6,30.23,NNW,336,1.0,6.0,37,0.00,,,0.00,meteohub,2013-01-16 22:37:00,
2013-01-16 14:42:00,67.6,40.5,30.23,NNW,329,0.0,6.0,37,0.00,,,0.00,meteohub,2013-01-16 22:42:00,
2013-01-16 14:47:00,67.8,41.4,30.23,WNW,290,0.0,5.0,38,0.00,,,0.00,meteohub,2013-01-16 22:47:00,
2013-01-16 14:52:00,68.2,39.6,30.24,NNW,333,1.0,5.0,35,0.00,,,0.00,meteohub,2013-01-16 22:52:00,
2013-01-16 14:57:00,68.0,40.1,30.23,NNW,343,0.0,5.0,36,0.00,,,0.00,meteohub,2013-01-16 22:57:00,
2013-01-16 15:02:00,67.8,39.2,30.23,NW,323,0.0,5.0,35,0.00,,,0.00,meteohub,2013-01-16 23:02:00,
2013-01-16 15:07:00,67.6,39.7,30.23,NNW,339,0.0,8.0,36,0.00,,,0.00,meteohub,2013-01-16 23:07:00,
2013-01-16 15:12:00,67.5,38.8,30.23,NW,305,1.0,8.0,35,0.00,,,0.00,meteohub,2013-01-16 23:12:00,
2013-01-16 15:17:00,67.5,38.8,30.23,North,5,0.0,6.0,35,0.00,,,0.00,meteohub,2013-01-16 23:17:00,
2013-01-16 15:22:00,67.6,37.6,30.23,NW,320,1.0,4.0,33,0.00,,,0.00,meteohub,2013-01-16 23:22:00,
2013-01-16 15:27:00,67.8,39.2,30.23,NNE,13,0.0,4.0,35,0.00,,,0.00,meteohub,2013-01-16 23:27:00,
2013-01-16 15:32:00,68.5,38.3,30.23,South,189,0.0,4.0,33,0.00,,,0.00,meteohub,2013-01-16 23:32:00,
2013-01-16 15:37:00,69.1,39.6,30.23,West,277,0.0,4.0,34,0.00,,,0.00,meteohub,2013-01-16 23:37:00,
2013-01-16 15:42:00,69.1,37.9,30.23,West,279,0.0,2.0,32,0.00,,,0.00,meteohub,2013-01-16 23:42:00,
2013-01-16 15:47:00,68.4,35.8,30.23,NNE,16,3.0,3.0,30,0.00,,,0.00,meteohub,2013-01-16 23:47:00,
2013-01-16 15:52:00,67.5,34.2,30.23,North,351,4.0,7.0,29,0.00,,,0.00,meteohub,2013-01-16 23:52:00,
2013-01-16 15:57:00,66.9,33.6,30.23,North,350,4.0,7.0,29,0.00,,,0.00,meteohub,2013-01-16 23:57:00,
2013-01-16 16:02:00,66.7,34.3,30.23,NNW,344,1.0,7.0,30,0.00,,,0.00,meteohub,2013-01-17 00:02:00,
2013-01-16 16:07:00,66.4,34.9,30.23,North,355,5.0,7.0,31,0.00,,,0.00,meteohub,2013-01-17 00:07:00,
2013-01-16 16:12:00,66.0,34.5,30.23,NNW,342,1.0,8.0,31,0.00,,,0.00,meteohub,2013-01-17 00:12:00,
2013-01-16 16:17:00,65.7,35.8,30.23,NW,322,4.0,8.0,33,0.00,,,0.00,meteohub,2013-01-17 00:17:00,
2013-01-16 16:22:00,65.1,34.5,30.22,North,355,5.0,8.0,32,0.00,,,0.00,meteohub,2013-01-17 00:22:00,
2013-01-16 16:27:00,64.8,34.2,30.23,North,0,4.0,8.0,32,0.00,,,0.00,meteohub,2013-01-17 00:27:00,
2013-01-16 16:32:00,64.2,33.8,30.23,NNE,17,3.0,9.0,32,0.00,,,0.00,meteohub,2013-01-17 00:32:00,
2013-01-16 16:37:00,63.9,33.4,30.22,NNE,13,2.0,9.0,32,0.00,,,0.00,meteohub,2013-01-17 00:37:00,
2013-01-16 16:42:00,63.3,33.8,30.23,NNW,344,1.0,9.0,33,0.00,,,0.00,meteohub,2013-01-17 00:42:00,
2013-01-16 16:47:00,63.1,33.6,30.23,NNW,333,0.0,8.0,33,0.00,,,0.00,meteohub,2013-01-17 00:47:00,
2013-01-16 16:52:00,62.8,33.3,30.23,NNW,345,2.0,8.0,33,0.00,,,0.00,meteohub,2013-01-17 00:52:00,
2013-01-16 16:57:00,62.4,33.6,30.23,NNE,14,2.0,6.0,34,0.00,,,0.00,meteohub,2013-01-17 00:57:00,
2013-01-16 17:02:00,62.1,34.2,30.23,NNW,343,5.0,6.0,35,0.00,,,0.00,meteohub,2013-01-17 01:02:00,
2013-01-16 17:07:00,61.7,33.8,30.23,NNW,336,2.0,6.0,35,0.00,,,0.00,meteohub,2013-01-17 01:07:00,
2013-01-16 17:12:00,61.3,33.4,30.23,NNW,343,4.0,6.0,35,0.00,,,0.00,meteohub,2013-01-17 01:12:00,
2013-01-16 17:17:00,61.0,33.8,30.23,NW,325,2.0,7.0,36,0.00,,,0.00,meteohub,2013-01-17 01:17:00,
2013-01-16 17:22:00,60.6,33.4,30.23,NNW,336,2.0,7.0,36,0.00,,,0.00,meteohub,2013-01-17 01:22:00,
2013-01-16 17:27:00,60.4,33.4,30.23,NNW,336,1.0,7.0,36,0.00,,,0.00,meteohub,2013-01-17 01:27:00,
2013-01-16 17:32:00,60.1,33.8,30.23,NNW,336,0.0,5.0,37,0.00,,,0.00,meteohub,2013-01-17 01:32:00,
2013-01-16 17:37:00,59.9,34.2,30.23,NNW,337,0.0,5.0,38,0.00,,,0.00,meteohub,2013-01-17 01:37:00,
2013-01-16 17:42:00,59.5,34.0,30.23,NNW,337,0.0,4.0,38,0.00,,,0.00,meteohub,2013-01-17 01:42:00,
2013-01-16 17:47:00,59.4,34.3,30.23,NNW,337,0.0,2.0,39,0.00,,,0.00,meteohub,2013-01-17 01:47:00,
2013-01-16 17:52:00,59.0,34.2,30.23,NNW,337,0.0,1.0,39,0.00,,,0.00,meteohub,2013-01-17 01:52:00,
2013-01-16 17:57:00,58.8,34.0,30.23,NNW,337,0.0,2.0,39,0.00,,,0.00,meteohub,2013-01-17 01:57:00,
2013-01-16 18:02:00,58.8,34.5,30.24,NNW,337,0.0,2.0,40,0.00,,,0.00,meteohub,2013-01-17 02:02:00,
2013-01-16 18:07:00,58.6,34.3,30.24,NNW,337,0.0,2.0,40,0.00,,,0.00,meteohub,2013-01-17 02:07:00,
2013-01-16 18:12:00,58.5,34.2,30.24,NNW,337,0.0,2.0,40,0.00,,,0.00,meteohub,2013-01-17 02:12:00,
2013-01-16 18:17:00,58.5,34.2,30.23,NNW,337,0.0,1.0,40,0.00,,,0.00,meteohub,2013-01-17 02:17:00,
2013-01-16 18:22:00,58.3,34.0,30.23,NNW,337,0.0,1.0,40,0.00,,,0.00,meteohub,2013-01-17 02:22:00,
2013-01-16 18:27:00,58.3,34.7,30.23,NNW,337,0.0,0.0,41,0.00,,,0.00,meteohub,2013-01-17 02:27:00,
2013-01-16 18:32:00,58.1,35.1,30.24,NNW,341,0.0,1.0,42,0.00,,,0.00,meteohub,2013-01-17 02:32:00,
2013-01-16 18:37:00,57.7,34.9,30.23,NNW,341,0.0,1.0,42,0.00,,,0.00,meteohub,2013-01-17 02:37:00,
2013-01-16 18:42:00,57.6,35.2,30.23,NNW,341,0.0,1.0,43,0.00,,,0.00,meteohub,2013-01-17 02:42:00,
2013-01-16 18:47:00,57.0,35.2,30.23,NNW,341,0.0,1.0,44,0.00,,,0.00,meteohub,2013-01-17 02:47:00,
2013-01-16 18:52:00,56.7,35.6,30.23,NNW,341,0.0,0.0,45,0.00,,,0.00,meteohub,2013-01-17 02:52:00,
2013-01-16 18:57:00,56.3,35.8,30.23,NNW,341,0.0,0.0,46,0.00,,,0.00,meteohub,2013-01-17 02:57:00,
2013-01-16 19:02:00,55.8,35.8,30.24,NNW,341,0.0,0.0,47,0.00,,,0.00,meteohub,2013-01-17 03:02:00,
2013-01-16 19:07:00,55.4,36.0,30.24,NNW,341,0.0,0.0,48,0.00,,,0.00,meteohub,2013-01-17 03:07:00,
2013-01-16 19:12:00,54.9,35.6,30.24,NNW,341,0.0,0.0,48,0.00,,,0.00,meteohub,2013-01-17 03:12:00,
2013-01-16 19:17:00,54.5,35.8,30.23,NNW,341,0.0,0.0,49,0.00,,,0.00,meteohub,2013-01-17 03:17:00,
2013-01-16 19:22:00,54.1,36.0,30.24,NNW,341,0.0,0.0,50,0.00,,,0.00,meteohub,2013-01-17 03:22:00,
2013-01-16 19:27:00,53.8,36.1,30.23,NNW,341,0.0,0.0,51,0.00,,,0.00,meteohub,2013-01-17 03:27:00,
2013-01-16 19:32:00,53.4,35.8,30.24,NNW,341,0.0,0.0,51,0.00,,,0.00,meteohub,2013-01-17 03:32:00,
2013-01-16 19:37:00,53.2,36.1,30.23,NNW,341,0.0,0.0,52,0.00,,,0.00,meteohub,2013-01-17 03:37:00,
2013-01-16 19:42:00,53.1,36.3,30.23,NNW,341,0.0,0.0,53,0.00,,,0.00,meteohub,2013-01-17 03:42:00,
2013-01-16 19:47:00,52.9,36.1,30.23,NNW,341,0.0,0.0,53,0.00,,,0.00,meteohub,2013-01-17 03:47:00,
2013-01-16 19:52:00,52.7,36.0,30.23,NNW,341,0.0,1.0,53,0.00,,,0.00,meteohub,2013-01-17 03:52:00,
2013-01-16 19:57:00,52.5,36.3,30.22,NNW,341,0.0,1.0,54,0.00,,,0.00,meteohub,2013-01-17 03:57:00,
2013-01-16 20:02:00,52.2,36.0,30.22,NNW,341,0.0,0.0,54,0.00,,,0.00,meteohub,2013-01-17 04:02:00,
2013-01-16 20:07:00,51.8,36.1,30.22,NNW,341,0.0,1.0,55,0.00,,,0.00,meteohub,2013-01-17 04:07:00,
2013-01-16 20:12:00,51.6,36.5,30.22,NNE,17,3.0,3.0,56,0.00,,,0.00,meteohub,2013-01-17 04:12:00,
2013-01-16 20:17:00,51.4,36.7,30.22,South,182,0.0,5.0,57,0.00,,,0.00,meteohub,2013-01-17 04:17:00,
2013-01-16 20:22:00,51.1,36.3,30.22,South,182,0.0,5.0,57,0.00,,,0.00,meteohub,2013-01-17 04:22:00,
2013-01-16 20:27:00,50.7,36.5,30.22,South,182,0.0,4.0,58,0.00,,,0.00,meteohub,2013-01-17 04:27:00,
2013-01-16 20:33:00,50.4,36.5,30.22,South,182,0.0,2.0,59,0.00,,,0.00,meteohub,2013-01-17 04:33:00,
2013-01-16 20:38:00,50.2,36.3,30.21,South,182,0.0,1.0,59,0.00,,,0.00,meteohub,2013-01-17 04:38:00,
2013-01-16 20:43:00,49.8,36.5,30.21,South,182,0.0,1.0,60,0.00,,,0.00,meteohub,2013-01-17 04:43:00,
2013-01-16 20:48:00,49.5,36.1,30.21,South,182,0.0,2.0,60,0.00,,,0.00,meteohub,2013-01-17 04:48:00,
2013-01-16 20:53:00,49.5,36.5,30.21,South,182,0.0,2.0,61,0.00,,,0.00,meteohub,2013-01-17 04:53:00,
2013-01-16 20:58:00,49.3,36.3,30.21,South,182,0.0,1.0,61,0.00,,,0.00,meteohub,2013-01-17 04:58:00,
2013-01-16 21:02:00,49.3,36.9,30.21,South,182,0.0,1.0,62,0.00,,,0.00,meteohub,2013-01-17 05:02:00,
2013-01-16 21:03:00,49.3,36.9,30.20,South,182,0.0,1.0,62,0.00,,,0.00,meteohub,2013-01-17 05:03:00,
2013-01-16 21:04:00,49.3,36.9,30.20,South,182,0.0,1.0,62,0.00,,,0.00,meteohub,2013-01-17 05:04:00,
2013-01-16 21:05:00,49.3,36.9,30.20,South,182,0.0,1.0,62,0.00,,,0.00,meteohub,2013-01-17 05:05:00,
2013-01-16 21:11:00,49.1,36.7,30.21,South,182,0.0,1.0,62,0.00,,,0.00,meteohub,2013-01-17 05:11:00,
2013-01-16 21:16:00,48.9,36.5,30.21,South,182,0.0,1.0,62,0.00,,,0.00,meteohub,2013-01-17 05:16:00,
2013-01-16 21:21:00,48.9,36.5,30.20,South,182,0.0,1.0,62,0.00,,,0.00,meteohub,2013-01-17 05:21:00,
2013-01-16 21:26:00,48.9,36.5,30.20,South,182,0.0,0.0,62,0.00,,,0.00,meteohub,2013-01-17 05:26:00,
2013-01-16 21:31:00,48.9,36.9,30.20,South,182,0.0,0.0,63,0.00,,,0.00,meteohub,2013-01-17 05:31:00,
2013-01-16 21:36:00,48.7,36.7,30.19,South,182,2.0,0.0,63,0.00,,,0.00,meteohub,2013-01-17 05:36:00,
2013-01-16 21:41:00,48.4,36.3,30.19,North,5,0.0,3.0,63,0.00,,,0.00,meteohub,2013-01-17 05:41:00,
2013-01-16 21:46:00,48.0,36.5,30.19,North,5,0.0,4.0,64,0.00,,,0.00,meteohub,2013-01-17 05:46:00,
2013-01-16 21:51:00,47.8,36.7,30.19,North,11,4.0,4.0,65,0.00,,,0.00,meteohub,2013-01-17 05:51:00,
2013-01-16 21:57:00,48.0,36.9,30.19,NNE,12,0.0,5.0,65,0.00,,,0.00,meteohub,2013-01-17 05:57:00,
2013-01-16 22:02:00,48.0,36.9,30.19,NNE,12,1.0,5.0,65,0.00,,,0.00,meteohub,2013-01-17 06:02:00,
2013-01-16 22:07:00,47.7,36.9,30.19,NNE,14,0.0,5.0,66,0.00,,,0.00,meteohub,2013-01-17 06:07:00,
2013-01-16 22:12:00,47.5,37.0,30.19,NNE,14,2.0,3.0,67,0.00,,,0.00,meteohub,2013-01-17 06:12:00,
2013-01-16 22:17:00,47.7,36.9,30.19,NNE,14,0.0,4.0,66,0.00,,,0.00,meteohub,2013-01-17 06:17:00,
2013-01-16 22:22:00,47.7,36.9,30.18,NNE,14,0.0,4.0,66,0.00,,,0.00,meteohub,2013-01-17 06:22:00,
2013-01-16 22:27:00,47.7,36.5,30.18,NNE,14,0.0,4.0,65,0.00,,,0.00,meteohub,2013-01-17 06:27:00,
2013-01-16 22:32:00,47.5,36.7,30.18,NNE,14,0.0,1.0,66,0.00,,,0.00,meteohub,2013-01-17 06:32:00,
2013-01-16 22:37:00,47.5,36.7,30.18,NNE,14,0.0,1.0,66,0.00,,,0.00,meteohub,2013-01-17 06:37:00,
2013-01-16 22:42:00,47.1,36.3,30.18,NNE,14,0.0,1.0,66,0.00,,,0.00,meteohub,2013-01-17 06:42:00,
2013-01-16 22:47:00,46.9,36.5,30.18,NNE,14,0.0,1.0,67,0.00,,,0.00,meteohub,2013-01-17 06:47:00,
2013-01-16 22:52:00,46.8,36.3,30.18,NNE,14,0.0,1.0,67,0.00,,,0.00,meteohub,2013-01-17 06:52:00,
2013-01-16 22:57:00,46.6,36.1,30.18,NNE,14,0.0,0.0,67,0.00,,,0.00,meteohub,2013-01-17 06:57:00,
2013-01-16 23:02:00,46.4,36.0,30.18,NNE,14,0.0,0.0,67,0.00,,,0.00,meteohub,2013-01-17 07:02:00,
2013-01-16 23:07:00,46.0,36.1,30.18,NNE,14,0.0,0.0,68,0.00,,,0.00,meteohub,2013-01-17 07:07:00,
2013-01-16 23:12:00,45.9,36.3,30.17,NNE,14,0.0,0.0,69,0.00,,,0.00,meteohub,2013-01-17 07:12:00,
2013-01-16 23:17:00,45.7,36.5,30.18,NNE,14,0.0,0.0,70,0.00,,,0.00,meteohub,2013-01-17 07:17:00,
2013-01-16 23:22:00,45.3,36.1,30.18,NNE,14,0.0,0.0,70,0.00,,,0.00,meteohub,2013-01-17 07:22:00,
2013-01-16 23:27:00,45.5,36.0,30.18,NNE,14,0.0,1.0,69,0.00,,,0.00,meteohub,2013-01-17 07:27:00,
2013-01-16 23:32:00,45.3,35.8,30.18,NNE,14,3.0,3.0,69,0.00,,,0.00,meteohub,2013-01-17 07:32:00,
2013-01-16 23:37:00,45.1,36.0,30.18,North,5,2.0,3.0,70,0.00,,,0.00,meteohub,2013-01-17 07:37:00,
2013-01-16 23:42:00,45.3,36.1,30.19,NNE,24,3.0,5.0,70,0.00,,,0.00,meteohub,2013-01-17 07:42:00,
2013-01-16 23:47:00,45.7,36.1,30.19,NNE,24,1.0,5.0,69,0.00,,,0.00,meteohub,2013-01-17 07:47:00,
2013-01-16 23:52:00,46.4,35.6,30.19,NNE,24,2.0,5.0,66,0.00,,,0.00,meteohub,2013-01-17 07:52:00,
2013-01-16 23:57:00,46.8,35.6,30.19,NNE,24,0.0,4.0,65,0.00,,,0.00,meteohub,2013-01-17 07:57:00,